STARLINK-2016 (47639 NORAD) Tracking and Keplerian Element Data

This shows tracking and keplerian element data for the satellite.

Feedback or suggestion? Click here.




ElementValue
Catalog47639
NameSTARLINK-2016
Epoch Orbit177
Epoch Day101.91668981
Epoch Year2021
RAAN188.9684
Inclination53.0477
Eccentricity0.0001869
Argument of Perigee28.0494
Mean Anonmoly26.1204
Mean Motion15.73242286
Decay Rate-0.00012498
L11 47639U 21012V 21101.91668981 -.00012498 00000-0 -84575-4 0 9997
L22 47639 53.0477 188.9684 0001869 28.0494 26.1204 15.73242286 1772

Live tracking and technical data element details for STARLINK-2016 (NORAD 47639). STARLINK-2016 can be tracked NOW for your location showing map with azimuth and elevation plus other details from your city location.

Track the satellite on the map from your city or location and see movement details for azimuth, elevation, latitude, longitude, range, height, and movement on the map or in text.







IsCatalogInMostPopularTable: catalog: 47639, numindb: 16
Update: records affected: 1



GetName: 47639 STARLINK-2016

Hit Count: updated at: Tue, 13 Apr 2021 04:13:55 GMT